owner,sensor,date,latitude,longitude,vertical_datum,wind_speed,wind_to_direction,wind_speed_of_gust,qcFlag 
TABS,ioos:station:wmo:42044:1,2009-08-14T00:00:00Z,26.1914,-97.0507,0.0,4.304602188,123.2474109,5.61,'11111222,11111222,11111222' 
TABS,ioos:station:wmo:42044:1,2009-08-14T00:30:00Z,26.1914,-97.0507,0.0,4.33664617,130.0427263,5.41,'11111222,11111222,11111222' 
TABS,ioos:station:wmo:42044:1,2009-08-14T01:00:00Z,26.1914,-97.0507,0.0,4.731437414,133.8870875,5.71,'11111222,11111222,11111222' 
TABS,ioos:station:wmo:42044:1,2009-08-14T01:30:00Z,26.1914,-97.0507,0.0,4.676334034,133.1806425,6.11,'11111222,11111222,11111222' 
TABS,ioos:station:wmo:42044:1,2009-08-14T02:00:00Z,26.1914,-97.0507,0.0,4.468568003,129.4611442,5.27,'11111222,11111222,11111222' 
TABS,ioos:station:wmo:42044:1,2009-08-14T02:30:00Z,26.1914,-97.0507,0.0,4.194150689,133.7444572,5.0,'11111222,11111222,11111222' 
TABS,ioos:station:wmo:42044:1,2009-08-14T03:00:00Z,26.1914,-97.0507,0.0,4.916797738,139.7023601,5.99,'11111222,11111222,11111222' 
TABS,ioos:station:wmo:42044:1,2009-08-14T03:30:00Z,26.1914,-97.0507,0.0,4.641551465,141.6489453,5.84,'11111222,11111222,11111222' 
TABS,ioos:station:wmo:42044:1,2009-08-14T04:00:00Z,26.1914,-97.0507,0.0,4.265969995,145.6024442,5.08,'11111222,11111222,11111222' 
TABS,ioos:station:wmo:42044:1,2009-08-14T04:30:00Z,26.1914,-97.0507,0.0,3.7,145.7948325,4.72,'11111222,11111222,11111222' 
TABS,ioos:station:wmo:42044:1,2009-08-14T05:00:00Z,26.1914,-97.0507,0.0,4.212327148,159.2850149,4.98,'11111222,11111222,11111222' 
TABS,ioos:station:wmo:42044:1,2009-08-14T05:30:00Z,26.1914,-97.0507,0.0,4.284308579,153.3754139,5.31,'11111222,11111222,11111222' 
TABS,ioos:station:wmo:42044:1,2009-08-14T06:00:00Z,26.1914,-97.0507,0.0,4.020572099,153.8813409,5.03,'11111222,11111222,11111222' 
TABS,ioos:station:wmo:42044:1,2009-08-14T06:30:00Z,26.1914,-97.0507,0.0,4.162427177,156.9462686,4.98,'11111222,11111222,11111222' 
TABS,ioos:station:wmo:42044:1,2009-08-14T07:00:00Z,26.1914,-97.0507,0.0,4.557630964,163.9512432,5.38,'11111222,11111222,11111222' 
TABS,ioos:station:wmo:42044:1,2009-08-14T07:30:00Z,26.1914,-97.0507,0.0,4.413671941,163.4129107,5.27,'11111222,11111222,11111222' 
TABS,ioos:station:wmo:42044:1,2009-08-14T08:00:00Z,26.1914,-97.0507,0.0,4.503953819,162.6917594,5.21,'11111222,11111222,11111222' 
TABS,ioos:station:wmo:42044:1,2009-08-14T08:30:00Z,26.1914,-97.0507,0.0,3.768527564,157.0412365,4.6,'11111222,11111222,11111222' 
TABS,ioos:station:wmo:42044:1,2009-08-14T09:00:00Z,26.1914,-97.0507,0.0,4.205567738,165.9639998,5.02,'11111222,11111222,11111222' 
TABS,ioos:station:wmo:42044:1,2009-08-14T09:30:00Z,26.1914,-97.0507,0.0,3.716517187,162.7841771,4.52,'11111222,11111222,11111222' 
TABS,ioos:station:wmo:42044:1,2009-08-14T10:00:00Z,26.1914,-97.0507,0.0,2.695793019,156.3830578,3.36,'11111222,11111222,11111222' 
TABS,ioos:station:wmo:42044:1,2009-08-14T10:30:00Z,26.1914,-97.0507,0.0,2.306447485,163.3723869,2.87,'11111222,11111222,11111222' 
TABS,ioos:station:wmo:42044:1,2009-08-14T11:00:00Z,26.1914,-97.0507,0.0,1.714934401,166.8553736,2.03,'11111222,11111222,11111222' 
TABS,ioos:station:wmo:42044:1,2009-08-14T11:30:00Z,26.1914,-97.0507,0.0,1.990226118,152.7914772,2.34,'11111222,11111222,11111222' 
TABS,ioos:station:wmo:42044:1,2009-08-14T12:00:00Z,26.1914,-97.0507,0.0,1.535610628,150.7644743,1.83,'11111222,11111222,11111222' 
TABS,ioos:station:wmo:42044:1,2009-08-14T12:30:00Z,26.1914,-97.0507,0.0,1.457978052,153.9624671,1.85,'11111222,11111222,11111222' 
TABS,ioos:station:wmo:42044:1,2009-08-14T13:00:00Z,26.1914,-97.0507,0.0,1.982851482,191.9334866,2.64,'11111222,11111222,11111222' 
TABS,ioos:station:wmo:42044:1,2009-08-14T13:30:00Z,26.1914,-97.0507,0.0,1.879494613,208.6106032,2.47,'11111222,11111222,11111222' 
TABS,ioos:station:wmo:42044:1,2009-08-14T14:00:00Z,26.1914,-97.0507,0.0,0.958801335,239.9587063,1.33,'11111222,11111222,11111222' 
TABS,ioos:station:wmo:42044:1,2009-08-14T14:30:00Z,26.1914,-97.0507,0.0,0.172626765,280.0079564,0.91,'11111222,11111222,11111222' 
TABS,ioos:station:wmo:42044:1,2009-08-14T15:00:00Z,26.1914,-97.0507,0.0,0.697782201,25.46307506,1.11,'11111222,11111222,11111222' 
TABS,ioos:station:wmo:42044:1,2009-08-14T15:30:00Z,26.1914,-97.0507,0.0,0.650691939,43.75432296,0.98,'11111222,11111222,11111222' 
TABS,ioos:station:wmo:42044:1,2009-08-14T16:00:00Z,26.1914,-97.0507,0.0,1.574706322,67.99552456,2.24,'11111222,11111222,11111222' 
TABS,ioos:station:wmo:42044:1,2009-08-14T16:30:00Z,26.1914,-97.0507,0.0,1.662077014,105.709022,2.15,'11111222,11111222,11111222' 
TABS,ioos:station:wmo:42044:1,2009-08-14T17:00:00Z,26.1914,-97.0507,0.0,1.793599732,117.5654818,2.26,'11111222,11111222,11111222' 
TABS,ioos:station:wmo:42044:1,2009-08-14T17:30:00Z,26.1914,-97.0507,0.0,2.405202694,83.55417612,2.98,'11111222,11111222,11111222' 
TABS,ioos:station:wmo:42044:1,2009-08-14T18:00:00Z,26.1914,-97.0507,0.0,2.634008352,113.2560814,3.41,'11111222,11111222,11111222' 
TABS,ioos:station:wmo:42044:1,2009-08-14T18:30:00Z,26.1914,-97.0507,0.0,3.019023021,115.7166477,4.02,'11111222,11111222,11111222' 
TABS,ioos:station:wmo:42044:1,2009-08-14T19:00:00Z,26.1914,-97.0507,0.0,3.347013594,103.8290396,4.25,'11111222,11111222,11111222' 
TABS,ioos:station:wmo:42044:1,2009-08-14T19:30:00Z,26.1914,-97.0507,0.0,3.580516722,102.9110489,4.49,'11111222,11111222,11111222' 
TABS,ioos:station:wmo:42044:1,2009-08-14T20:00:00Z,26.1914,-97.0507,0.0,3.550774563,104.3497194,4.57,'11111222,11111222,11111222' 
TABS,ioos:station:wmo:42044:1,2009-08-14T20:30:00Z,26.1914,-97.0507,0.0,4.801770507,102.3868341,6.0,'11111222,11111222,11111222' 
TABS,ioos:station:wmo:42044:1,2009-08-14T21:00:00Z,26.1914,-97.0507,0.0,4.689658836,105.4590971,5.75,'11111222,11111222,11111222' 
TABS,ioos:station:wmo:42044:1,2009-08-14T21:30:00Z,26.1914,-97.0507,0.0,5.20197078,108.2611763,6.39,'11111222,11111222,11111222' 
TABS,ioos:station:wmo:42044:1,2009-08-14T22:00:00Z,26.1914,-97.0507,0.0,4.532471732,109.5946755,5.65,'11111222,11111222,11111222' 
TABS,ioos:station:wmo:42044:1,2009-08-14T22:30:00Z,26.1914,-97.0507,0.0,4.789676398,116.4049184,5.9,'11111222,11111222,11111222' 
TABS,ioos:station:wmo:42044:1,2009-08-14T23:00:00Z,26.1914,-97.0507,0.0,4.688816482,121.2155839,5.87,'11111222,11111222,11111222' 
TABS,ioos:station:wmo:42044:1,2009-08-14T23:30:00Z,26.1914,-97.0507,0.0,5.017220346,119.886878,6.44,'11111222,11111222,11111222' 
TABS,ioos:station:wmo:42044:1,2009-08-15T00:00:00Z,26.1914,-97.0507,0.0,4.688464567,122.3684371,5.86,'11111222,11111222,11111222' 
TABS,ioos:station:wmo:42044:1,2009-08-15T00:30:00Z,26.1914,-97.0507,0.0,4.95307985,120.4482995,5.95,'11111222,11111222,11111222' 
TABS,ioos:station:wmo:42044:1,2009-08-15T01:00:00Z,26.1914,-97.0507,0.0,5.226901568,122.2613561,6.26,'11111222,11111222,11111222' 
TABS,ioos:station:wmo:42044:1,2009-08-15T01:30:00Z,26.1914,-97.0507,0.0,5.140204276,120.2567873,6.58,'11111222,11111222,11111222' 
TABS,ioos:station:wmo:42044:1,2009-08-15T02:00:00Z,26.1914,-97.0507,0.0,4.480011161,126.7423405,5.4,'11111222,11111222,11111222' 
TABS,ioos:station:wmo:42044:1,2009-08-15T02:30:00Z,26.1914,-97.0507,0.0,4.6120928,136.5816956,5.62,'11111222,11111222,11111222' 
TABS,ioos:station:wmo:42044:1,2009-08-15T03:00:00Z,26.1914,-97.0507,0.0,4.45558077,136.0915294,5.38,'11111222,11111222,11111222' 
TABS,ioos:station:wmo:42044:1,2009-08-15T03:30:00Z,26.1914,-97.0507,0.0,4.365191863,141.7914687,5.21,'11111222,11111222,11111222' 
TABS,ioos:station:wmo:42044:1,2009-08-15T04:00:00Z,26.1914,-97.0507,0.0,4.266005157,147.0552466,4.98,'11111222,11111222,11111222' 
TABS,ioos:station:wmo:42044:1,2009-08-15T04:30:00Z,26.1914,-97.0507,0.0,4.401567902,146.4907367,5.57,'11111222,11111222,11111222' 
TABS,ioos:station:wmo:42044:1,2009-08-15T05:00:00Z,26.1914,-97.0507,0.0,3.788891659,140.8917725,4.51,'11111222,11111222,11111222' 
TABS,ioos:station:wmo:42044:1,2009-08-15T05:30:00Z,26.1914,-97.0507,0.0,3.688156721,142.6022003,4.66,'11111222,11111222,11111222' 
TABS,ioos:station:wmo:42044:1,2009-08-15T06:00:00Z,26.1914,-97.0507,0.0,3.796379855,156.0684251,5.03,'11111222,11111222,11111222' 
TABS,ioos:station:wmo:42044:1,2009-08-15T06:30:00Z,26.1914,-97.0507,0.0,4.10706708,171.3177069,4.93,'11111222,11111222,11111222' 
TABS,ioos:station:wmo:42044:1,2009-08-15T07:00:00Z,26.1914,-97.0507,0.0,4.331754841,172.0384782,5.27,'11111222,11111222,11111222' 
TABS,ioos:station:wmo:42044:1,2009-08-15T07:30:00Z,26.1914,-97.0507,0.0,3.577708764,169.6953881,4.4,'11111222,11111222,11111222' 
TABS,ioos:station:wmo:42044:1,2009-08-15T08:00:00Z,26.1914,-97.0507,0.0,3.336420237,167.7135774,4.33,'11111222,11111222,11111222' 
TABS,ioos:station:wmo:42044:1,2009-08-15T08:30:00Z,26.1914,-97.0507,0.0,3.525634695,171.8471445,4.28,'11111222,11111222,11111222' 
TABS,ioos:station:wmo:42044:1,2009-08-15T09:00:00Z,26.1914,-97.0507,0.0,3.337259355,176.2204054,4.05,'11111222,11111222,11111222' 
TABS,ioos:station:wmo:42044:1,2009-08-15T09:30:00Z,26.1914,-97.0507,0.0,3.460664676,170.18407,4.42,'11111222,11111222,11111222' 
TABS,ioos:station:wmo:42044:1,2009-08-15T10:00:00Z,26.1914,-97.0507,0.0,3.493665697,169.9447531,4.2,'11111222,11111222,11111222' 
TABS,ioos:station:wmo:42044:1,2009-08-15T10:30:00Z,26.1914,-97.0507,0.0,3.112956794,167.5712501,3.76,'11111222,11111222,11111222' 
TABS,ioos:station:wmo:42044:1,2009-08-15T11:00:00Z,26.1914,-97.0507,0.0,2.667208278,171.8093682,3.35,'11111222,11111222,11111222' 
TABS,ioos:station:wmo:42044:1,2009-08-15T11:30:00Z,26.1914,-97.0507,0.0,2.061552813,177.7762544,2.53,'11111222,11111222,11111222' 
TABS,ioos:station:wmo:42044:1,2009-08-15T12:00:00Z,26.1914,-97.0507,0.0,1.64,167.3198566,2.31,'11111222,11111222,11111222' 
TABS,ioos:station:wmo:42044:1,2009-08-15T12:30:00Z,26.1914,-97.0507,0.0,1.173243368,145.7684351,1.6,'11111222,11111222,11111222' 
TABS,ioos:station:wmo:42044:1,2009-08-15T13:00:00Z,26.1914,-97.0507,0.0,1.441700385,219.6530361,3.2,'11111222,11111222,11111222' 
TABS,ioos:station:wmo:42044:1,2009-08-15T13:30:00Z,26.1914,-97.0507,0.0,1.21823643,217.998854,2.01,'11111222,11111222,11111222' 
TABS,ioos:station:wmo:42044:1,2009-08-15T14:00:00Z,26.1914,-97.0507,0.0,1.348258136,209.7977321,1.72,'11111222,11111222,11111222' 
TABS,ioos:station:wmo:42044:1,2009-08-15T14:30:00Z,26.1914,-97.0507,0.0,0.391152144,237.5288836,1.35,'11111222,11111222,11111222' 
TABS,ioos:station:wmo:42044:1,2009-08-15T15:00:00Z,26.1914,-97.0507,0.0,1.502065245,143.6644309,2.34,'11111222,11111222,11111222' 
TABS,ioos:station:wmo:42044:1,2009-08-15T15:30:00Z,26.1914,-97.0507,0.0,2.452835094,189.3857068,3.93,'11111222,11111222,11111222' 
TABS,ioos:station:wmo:42044:1,2009-08-15T16:00:00Z,26.1914,-97.0507,0.0,1.23227432,141.9214171,2.32,'11111222,11111222,11111222' 
TABS,ioos:station:wmo:42044:1,2009-08-15T16:30:00Z,26.1914,-97.0507,0.0,1.733493582,123.2320543,2.3,'11111222,11111222,11111222' 
TABS,ioos:station:wmo:42044:1,2009-08-15T17:00:00Z,26.1914,-97.0507,0.0,2.063443723,110.7189124,2.69,'11111222,11111222,11111222' 
TABS,ioos:station:wmo:42044:1,2009-08-15T17:30:00Z,26.1914,-97.0507,0.0,3.03713681,117.6622471,3.85,'11111222,11111222,11111222' 
TABS,ioos:station:wmo:42044:1,2009-08-15T18:00:00Z,26.1914,-97.0507,0.0,3.497256067,116.8584798,4.66,'11111222,11111222,11111222' 
TABS,ioos:station:wmo:42044:1,2009-08-15T18:30:00Z,26.1914,-97.0507,0.0,4.27948595,119.0809651,5.52,'11111222,11111222,11111222' 
TABS,ioos:station:wmo:42044:1,2009-08-15T19:00:00Z,26.1914,-97.0507,0.0,3.677730278,108.3860613,4.84,'11111222,11111222,11111222' 
TABS,ioos:station:wmo:42044:1,2009-08-15T19:30:00Z,26.1914,-97.0507,0.0,3.964151864,119.7990145,5.13,'11111222,11111222,11111222' 
TABS,ioos:station:wmo:42044:1,2009-08-15T20:00:00Z,26.1914,-97.0507,0.0,4.208610222,121.1975823,5.52,'11111222,11111222,11111222' 
TABS,ioos:station:wmo:42044:1,2009-08-15T20:30:00Z,26.1914,-97.0507,0.0,4.496776623,120.6144792,5.87,'11111222,11111222,11111222' 
TABS,ioos:station:wmo:42044:1,2009-08-15T21:00:00Z,26.1914,-97.0507,0.0,5.224720088,112.9829656,6.58,'11111222,11111222,11111222' 
TABS,ioos:station:wmo:42044:1,2009-08-15T21:30:00Z,26.1914,-97.0507,0.0,6.216309194,116.7715085,7.6,'11111222,11111222,11111222' 
TABS,ioos:station:wmo:42044:1,2009-08-15T22:00:00Z,26.1914,-97.0507,0.0,6.243212314,106.3743858,7.43,'11111222,11111222,11111222' 
TABS,ioos:station:wmo:42044:1,2009-08-15T22:30:00Z,26.1914,-97.0507,0.0,5.56863538,120.6641306,7.2,'11111222,11111222,11111222' 
TABS,ioos:station:wmo:42044:1,2009-08-15T23:00:00Z,26.1914,-97.0507,0.0,5.915285285,119.4689086,7.74,'11111222,11111222,11111222' 
TABS,ioos:station:wmo:42044:1,2009-08-15T23:30:00Z,26.1914,-97.0507,0.0,6.627367502,130.2265317,8.26,'11111222,11111222,11111222' 
TABS,ioos:station:wmo:42044:1,2009-08-16T00:00:00Z,26.1914,-97.0507,0.0,6.342940958,135.4474298,7.53,'11111222,11111222,11111222' 
TABS,ioos:station:wmo:42044:1,2009-08-16T00:30:00Z,26.1914,-97.0507,0.0,5.93,141.6422841,7.34,'11111222,11111222,11111222' 
TABS,ioos:station:wmo:42044:1,2009-08-16T01:00:00Z,26.1914,-97.0507,0.0,5.14820357,145.4459133,6.68,'11111222,11111222,11111222' 
TABS,ioos:station:wmo:42044:1,2009-08-16T01:30:00Z,26.1914,-97.0507,0.0,5.320460506,147.3556467,6.83,'11111222,11111222,11111222' 
TABS,ioos:station:wmo:42044:1,2009-08-16T02:00:00Z,26.1914,-97.0507,0.0,4.825453347,153.2759197,6.49,'11111222,11111222,11111222' 
TABS,ioos:station:wmo:42044:1,2009-08-16T02:30:00Z,26.1914,-97.0507,0.0,5.421189906,148.6558902,6.44,'11111222,11111222,11111222' 
TABS,ioos:station:wmo:42044:1,2009-08-16T03:00:00Z,26.1914,-97.0507,0.0,6.051148651,151.1480016,7.42,'11111222,11111222,11111222' 
TABS,ioos:station:wmo:42044:1,2009-08-16T03:30:00Z,26.1914,-97.0507,0.0,4.944046925,150.4278889,6.24,'11111222,11111222,11111222' 
TABS,ioos:station:wmo:42044:1,2009-08-16T04:00:00Z,26.1914,-97.0507,0.0,4.987233702,152.407607,6.05,'11111222,11111222,11111222' 
TABS,ioos:station:wmo:42044:1,2009-08-16T04:30:00Z,26.1914,-97.0507,0.0,4.196951274,157.5904255,5.12,'11111222,11111222,11111222' 
TABS,ioos:station:wmo:42044:1,2009-08-16T05:00:00Z,26.1914,-97.0507,0.0,5.322875163,147.1163084,6.53,'11111222,11111222,11111222' 
TABS,ioos:station:wmo:42044:1,2009-08-16T05:30:00Z,26.1914,-97.0507,0.0,5.748825967,151.8750254,7.02,'11111222,11111222,11111222' 
TABS,ioos:station:wmo:42044:1,2009-08-16T06:00:00Z,26.1914,-97.0507,0.0,5.673878744,157.186203,6.83,'11111222,11111222,11111222' 
TABS,ioos:station:wmo:42044:1,2009-08-16T06:30:00Z,26.1914,-97.0507,0.0,5.731535571,159.2570115,7.11,'11111222,11111222,11111222' 
TABS,ioos:station:wmo:42044:1,2009-08-16T07:00:00Z,26.1914,-97.0507,0.0,5.110244613,161.6362152,6.35,'11111222,11111222,11111222' 
TABS,ioos:station:wmo:42044:1,2009-08-16T07:30:00Z,26.1914,-97.0507,0.0,6.148642127,162.6851387,7.54,'11111222,11111222,11111222' 
TABS,ioos:station:wmo:42044:1,2009-08-16T08:00:00Z,26.1914,-97.0507,0.0,6.11994281,166.872297,7.58,'11111222,11111222,11111222' 
TABS,ioos:station:wmo:42044:1,2009-08-16T08:30:00Z,26.1914,-97.0507,0.0,6.637183137,167.9115109,8.19,'11111222,11111222,11111222' 
TABS,ioos:station:wmo:42044:1,2009-08-16T09:00:00Z,26.1914,-97.0507,0.0,5.673244222,163.5138195,6.94,'11111222,11111222,11111222' 
TABS,ioos:station:wmo:42044:1,2009-08-16T09:30:00Z,26.1914,-97.0507,0.0,5.89033106,164.6427529,7.08,'11111222,11111222,11111222' 
TABS,ioos:station:wmo:42044:1,2009-08-16T10:00:00Z,26.1914,-97.0507,0.0,5.733489339,164.3156592,6.95,'11111222,11111222,11111222' 
TABS,ioos:station:wmo:42044:1,2009-08-16T10:30:00Z,26.1914,-97.0507,0.0,6.16116872,166.8662189,8.11,'11111222,11111222,11111222' 
TABS,ioos:station:wmo:42044:1,2009-08-16T11:00:00Z,26.1914,-97.0507,0.0,5.538321045,191.3506941,6.78,'11111222,11111222,11111222' 
TABS,ioos:station:wmo:42044:1,2009-08-16T11:30:00Z,26.1914,-97.0507,0.0,3.260138034,189.0002259,4.03,'11111222,11111222,11111222' 
TABS,ioos:station:wmo:42044:1,2009-08-16T12:00:00Z,26.1914,-97.0507,0.0,3.541412148,188.7709532,4.39,'11111222,11111222,11111222' 
TABS,ioos:station:wmo:42044:1,2009-08-16T12:30:00Z,26.1914,-97.0507,0.0,3.840468721,179.1050388,5.02,'11111222,11111222,11111222' 
TABS,ioos:station:wmo:42044:1,2009-08-16T13:00:00Z,26.1914,-97.0507,0.0,3.231098884,195.0686634,4.12,'11111222,11111222,11111222' 
TABS,ioos:station:wmo:42044:1,2009-08-16T13:30:00Z,26.1914,-97.0507,0.0,3.442092387,181.9980856,4.15,'11111222,11111222,11111222' 
TABS,ioos:station:wmo:42044:1,2009-08-16T14:00:00Z,26.1914,-97.0507,0.0,3.064147516,192.630397,4.03,'11111222,11111222,11111222' 
TABS,ioos:station:wmo:42044:1,2009-08-16T14:30:00Z,26.1914,-97.0507,0.0,2.846348538,183.8276663,3.59,'11111222,11111222,11111222' 
TABS,ioos:station:wmo:42044:1,2009-08-16T15:00:00Z,26.1914,-97.0507,0.0,2.278530228,202.1751294,2.9,'11111222,11111222,11111222' 
TABS,ioos:station:wmo:42044:1,2009-08-16T15:30:00Z,26.1914,-97.0507,0.0,2.490321264,179.0798776,3.38,'11111222,11111222,11111222' 
TABS,ioos:station:wmo:42044:1,2009-08-16T16:00:00Z,26.1914,-97.0507,0.0,2.522538404,165.3029255,3.07,'11111222,11111222,11111222' 
TABS,ioos:station:wmo:42044:1,2009-08-16T16:30:00Z,26.1914,-97.0507,0.0,2.962330164,157.1572277,4.2,'11111222,11111222,11111222' 
TABS,ioos:station:wmo:42044:1,2009-08-16T17:00:00Z,26.1914,-97.0507,0.0,3.421870833,162.3066118,4.19,'11111222,11111222,11111222' 
TABS,ioos:station:wmo:42044:1,2009-08-16T17:30:00Z,26.1914,-97.0507,0.0,5.093623465,158.2197399,6.34,'11111222,11111222,11111222' 
TABS,ioos:station:wmo:42044:1,2009-08-16T18:00:00Z,26.1914,-97.0507,0.0,5.27266536,153.2894313,6.42,'11111222,11111222,11111222' 
TABS,ioos:station:wmo:42044:1,2009-08-16T18:30:00Z,26.1914,-97.0507,0.0,5.259847907,154.3121271,6.5,'11111222,11111222,11111222' 
TABS,ioos:station:wmo:42044:1,2009-08-16T19:00:00Z,26.1914,-97.0507,0.0,5.774365766,152.4589377,7.22,'11111222,11111222,11111222' 
TABS,ioos:station:wmo:42044:1,2009-08-16T19:30:00Z,26.1914,-97.0507,0.0,5.791416062,153.4352214,6.87,'11111222,11111222,11111222' 
TABS,ioos:station:wmo:42044:1,2009-08-16T20:00:00Z,26.1914,-97.0507,0.0,5.461071323,154.2798135,6.63,'11111222,11111222,11111222' 
TABS,ioos:station:wmo:42044:1,2009-08-16T20:30:00Z,26.1914,-97.0507,0.0,5.677059098,151.9455994,6.78,'11111222,11111222,11111222' 
TABS,ioos:station:wmo:42044:1,2009-08-16T21:00:00Z,26.1914,-97.0507,0.0,5.465757038,154.4197469,6.6,'11111222,11111222,11111222' 
TABS,ioos:station:wmo:42044:1,2009-08-16T21:30:00Z,26.1914,-97.0507,0.0,5.686369668,147.2045201,6.95,'11111222,11111222,11111222' 
TABS,ioos:station:wmo:42044:1,2009-08-16T22:00:00Z,26.1914,-97.0507,0.0,5.613207639,148.773945,6.68,'11111222,11111222,11111222' 
TABS,ioos:station:wmo:42044:1,2009-08-16T22:30:00Z,26.1914,-97.0507,0.0,5.887962296,144.6096724,7.37,'11111222,11111222,11111222' 
TABS,ioos:station:wmo:42044:1,2009-08-16T23:00:00Z,26.1914,-97.0507,0.0,6.264000319,143.1121054,7.82,'11111222,11111222,11111222' 
TABS,ioos:station:wmo:42044:1,2009-08-16T23:30:00Z,26.1914,-97.0507,0.0,6.429696727,141.1874077,8.08,'11111222,11111222,11111222' 
TABS,ioos:station:wmo:42044:1,2009-08-17T00:00:00Z,26.1914,-97.0507,0.0,5.97226925,137.1716224,7.45,'11111222,11111222,11111222' 
TABS,ioos:station:wmo:42044:1,2009-08-17T00:30:00Z,26.1914,-97.0507,0.0,6.004964613,139.9992683,7.08,'11111222,11111222,11111222' 
TABS,ioos:station:wmo:42044:1,2009-08-17T01:00:00Z,26.1914,-97.0507,0.0,6.434477446,140.9928291,7.88,'11111222,11111222,11111222' 
TABS,ioos:station:wmo:42044:1,2009-08-17T01:30:00Z,26.1914,-97.0507,0.0,6.117679299,139.9069376,7.91,'11111222,11111222,11111222' 
TABS,ioos:station:wmo:42044:1,2009-08-17T02:00:00Z,26.1914,-97.0507,0.0,6.112609917,133.144162,7.41,'11111222,11111222,11111222' 
TABS,ioos:station:wmo:42044:1,2009-08-17T02:30:00Z,26.1914,-97.0507,0.0,5.924263667,137.5314502,7.89,'11111222,11111222,11111222' 
TABS,ioos:station:wmo:42044:1,2009-08-17T03:00:00Z,26.1914,-97.0507,0.0,6.054857554,141.3700493,7.71,'11111222,11111222,11111222' 
TABS,ioos:station:wmo:42044:1,2009-08-17T03:30:00Z,26.1914,-97.0507,0.0,7.155452466,139.3642703,8.45,'11111222,11111222,11111222' 
TABS,ioos:station:wmo:42044:1,2009-08-17T04:00:00Z,26.1914,-97.0507,0.0,6.852218619,138.7278561,8.38,'11111222,11111222,11111222' 
TABS,ioos:station:wmo:42044:1,2009-08-17T04:30:00Z,26.1914,-97.0507,0.0,6.844128871,142.7787937,8.48,'11111222,11111222,11111222' 
TABS,ioos:station:wmo:42044:1,2009-08-17T05:00:00Z,26.1914,-97.0507,0.0,6.604460614,143.8070878,7.75,'11111222,11111222,11111222' 
TABS,ioos:station:wmo:42044:1,2009-08-17T05:30:00Z,26.1914,-97.0507,0.0,6.30946115,149.2078365,8.59,'11111222,11111222,11111222' 
TABS,ioos:station:wmo:42044:1,2009-08-17T06:00:00Z,26.1914,-97.0507,0.0,6.312947014,149.3322633,7.9,'11111222,11111222,11111222' 
TABS,ioos:station:wmo:42044:1,2009-08-17T06:30:00Z,26.1914,-97.0507,0.0,5.60415917,156.7748253,6.41,'11111222,11111222,11111222' 
TABS,ioos:station:wmo:42044:1,2009-08-17T07:00:00Z,26.1914,-97.0507,0.0,6.46421689,156.7667591,7.86,'11111222,11111222,11111222' 
TABS,ioos:station:wmo:42044:1,2009-08-17T07:30:00Z,26.1914,-97.0507,0.0,6.386900657,152.5926991,7.85,'11111222,11111222,11111222' 
TABS,ioos:station:wmo:42044:1,2009-08-17T08:00:00Z,26.1914,-97.0507,0.0,5.456161654,157.4773316,6.81,'11111222,11111222,11111222' 
TABS,ioos:station:wmo:42044:1,2009-08-17T08:30:00Z,26.1914,-97.0507,0.0,4.821089089,158.9712811,5.82,'11111222,11111222,11111222' 
TABS,ioos:station:wmo:42044:1,2009-08-17T09:00:00Z,26.1914,-97.0507,0.0,5.015376357,161.6375565,6.16,'11111222,11111222,11111222' 
TABS,ioos:station:wmo:42044:1,2009-08-17T09:30:00Z,26.1914,-97.0507,0.0,5.606353539,159.7552096,6.68,'11111222,11111222,11111222' 
TABS,ioos:station:wmo:42044:1,2009-08-17T10:00:00Z,26.1914,-97.0507,0.0,4.789791227,164.2520256,5.71,'11111222,11111222,11111222' 
TABS,ioos:station:wmo:42044:1,2009-08-17T10:30:00Z,26.1914,-97.0507,0.0,4.67369233,165.7558692,5.79,'11111222,11111222,11111222' 
TABS,ioos:station:wmo:42044:1,2009-08-17T11:00:00Z,26.1914,-97.0507,0.0,4.671637828,163.9706184,5.66,'11111222,11111222,11111222' 
TABS,ioos:station:wmo:42044:1,2009-08-17T11:30:00Z,26.1914,-97.0507,0.0,4.699659562,162.4134959,6.05,'11111222,11111222,11111222' 
TABS,ioos:station:wmo:42044:1,2009-08-17T12:00:00Z,26.1914,-97.0507,0.0,4.577553932,168.1502586,5.64,'11111222,11111222,11111222' 
TABS,ioos:station:wmo:42044:1,2009-08-17T12:30:00Z,26.1914,-97.0507,0.0,4.506750492,168.7401701,5.77,'11111222,11111222,11111222' 
TABS,ioos:station:wmo:42044:1,2009-08-17T13:00:00Z,26.1914,-97.0507,0.0,3.273316361,173.157453,4.01,'11111222,11111222,11111222' 
TABS,ioos:station:wmo:42044:1,2009-08-17T13:30:00Z,26.1914,-97.0507,0.0,2.428538655,167.3946626,3.18,'11111222,11111222,11111222' 
TABS,ioos:station:wmo:42044:1,2009-08-17T14:00:00Z,26.1914,-97.0507,0.0,2.902705634,159.0052633,3.46,'11111222,11111222,11111222' 
TABS,ioos:station:wmo:42044:1,2009-08-17T14:30:00Z,26.1914,-97.0507,0.0,2.55,151.9277892,3.08,'11111222,11111222,11111222' 
TABS,ioos:station:wmo:42044:1,2009-08-17T15:00:00Z,26.1914,-97.0507,0.0,2.694160352,135.4514532,3.33,'11111222,11111222,11111222' 
TABS,ioos:station:wmo:42044:1,2009-08-17T15:30:00Z,26.1914,-97.0507,0.0,2.508385935,142.1253154,3.02,'11111222,11111222,11111222' 
TABS,ioos:station:wmo:42044:1,2009-08-17T16:00:00Z,26.1914,-97.0507,0.0,2.730018315,136.1876202,3.46,'11111222,11111222,11111222' 
TABS,ioos:station:wmo:42044:1,2009-08-17T16:30:00Z,26.1914,-97.0507,0.0,2.892490277,135.98083,3.83,'11111222,11111222,11111222' 
TABS,ioos:station:wmo:42044:1,2009-08-17T17:00:00Z,26.1914,-97.0507,0.0,3.087685217,124.9771575,3.97,'11111222,11111222,11111222' 
TABS,ioos:station:wmo:42044:1,2009-08-17T17:30:00Z,26.1914,-97.0507,0.0,3.06804498,124.778171,3.69,'11111222,11111222,11111222' 
TABS,ioos:station:wmo:42044:1,2009-08-17T18:00:00Z,26.1914,-97.0507,0.0,3.29528451,128.4700591,4.21,'11111222,11111222,11111222' 
TABS,ioos:station:wmo:42044:1,2009-08-17T18:30:00Z,26.1914,-97.0507,0.0,3.962890359,125.6556656,5.43,'11111222,11111222,11111222' 
TABS,ioos:station:wmo:42044:1,2009-08-17T19:00:00Z,26.1914,-97.0507,0.0,4.873366393,139.577541,6.01,'11111222,11111222,11111222' 